EN

Hourly Weather Amendolara

Today, 18 January, Monday

Time Temperature Precipitation Wind Pressure Humidity
00:00 +1°C° 0.6 mm 4 mps 728 mmHg 95%
01:00 +1°C° 0 mm 5 mps 728 mmHg 93%
02:00 +1°C° 0.2 mm 5 mps 728 mmHg 93%
03:00 0°C° 0.2 mm 5 mps 729 mmHg 93%
04:00 0°C° 0.2 mm 4 mps 729 mmHg 92%
05:00 -1°C° 0 mm 5 mps 730 mmHg 91%
06:00 -1°C° 0 mm 5 mps 730 mmHg 91%
07:00 -1°C° 0 mm 5 mps 731 mmHg 91%
08:00 0°C° 0.1 mm 5 mps 732 mmHg 85%
09:00 +1°C° 0.1 mm 5 mps 733 mmHg 78%
10:00 +2°C° 0.1 mm 6 mps 734 mmHg 71%
11:00 +2°C° 0 mm 6 mps 734 mmHg 67%
12:00 +3°C° 0 mm 6 mps 734 mmHg 63%
13:00 +3°C° 0 mm 6 mps 734 mmHg 58%
14:00 +3°C° 0 mm 6 mps 734 mmHg 61%
15:00 +2°C° 0 mm 5 mps 735 mmHg 63%
16:00 +2°C° 0 mm 5 mps 735 mmHg 65%
17:00 +1°C° 0 mm 5 mps 735 mmHg 68%
18:00 0°C° 0 mm 4 mps 735 mmHg 71%
19:00 -1°C° 0 mm 4 mps 735 mmHg 74%
20:00 -1°C° 0 mm 4 mps 736 mmHg 75%
21:00 -1°C° 0 mm 4 mps 736 mmHg 76%
22:00 -1°C° 0 mm 4 mps 737 mmHg 77%
23:00 -1°C° 0 mm 4 mps 737 mmHg 76%

Tomorrow, 19 January, Tuesday

Time Temperature Precipitation Wind Pressure Humidity
00:00 -1°C° 0 mm 4 mps 737 mmHg 75%
01:00 -1°C° 0 mm 4 mps 737 mmHg 74%
02:00 -1°C° 0 mm 4 mps 737 mmHg 73%
03:00 -1°C° 0 mm 4 mps 737 mmHg 72%
04:00 0°C° 0 mm 3 mps 737 mmHg 71%
05:00 0°C° 0 mm 3 mps 737 mmHg 69%
06:00 0°C° 0 mm 3 mps 737 mmHg 67%
07:00 0°C° 0 mm 3 mps 737 mmHg 65%
08:00 +2°C° 0 mm 3 mps 738 mmHg 62%
09:00 +5°C° 0 mm 2 mps 738 mmHg 59%
10:00 +6°C° 0 mm 2 mps 739 mmHg 56%
11:00 +7°C° 0 mm 2 mps 739 mmHg 55%
12:00 +8°C° 0 mm 2 mps 739 mmHg 53%
13:00 +9°C° 0 mm 2 mps 739 mmHg 52%
14:00 +8°C° 0 mm 2 mps 739 mmHg 57%
15:00 +8°C° 0 mm 2 mps 738 mmHg 63%
16:00 +7°C° 0 mm 2 mps 738 mmHg 69%
17:00 +6°C° 0 mm 2 mps 738 mmHg 72%
18:00 +5°C° 0 mm 2 mps 738 mmHg 75%
19:00 +3°C° 0 mm 3 mps 738 mmHg 78%
20:00 +2°C° 0 mm 3 mps 738 mmHg 78%
21:00 +2°C° 0 mm 3 mps 738 mmHg 79%
22:00 +2°C° 0 mm 3 mps 739 mmHg 79%
23:00 +2°C° 0 mm 3 mps 738 mmHg 78%

Day after tomorrow, 20 January, Wednesday

Time Temperature Precipitation Wind Pressure Humidity
00:00 +2°C° 0 mm 3 mps 738 mmHg 78%
01:00 +2°C° 0 mm 3 mps 738 mmHg 77%
02:00 +3°C° 0 mm 2 mps 738 mmHg 77%
03:00 +3°C° 0 mm 2 mps 737 mmHg 78%
04:00 +3°C° 0 mm 2 mps 737 mmHg 78%
05:00 +3°C° 0 mm 2 mps 737 mmHg 80%
06:00 +3°C° 0 mm 2 mps 737 mmHg 81%
07:00 +3°C° 0 mm 2 mps 737 mmHg 83%
08:00 +5°C° 0 mm 2 mps 737 mmHg 80%
09:00 +6°C° 0 mm 2 mps 738 mmHg 77%
10:00 +8°C° 0 mm 2 mps 738 mmHg 74%
11:00 +9°C° 0 mm 2 mps 738 mmHg 73%
12:00 +9°C° 0 mm 2 mps 737 mmHg 71%
13:00 +10°C° 0 mm 2 mps 737 mmHg 69%
14:00 +10°C° 0 mm 2 mps 737 mmHg 72%
15:00 +9°C° 0 mm 3 mps 736 mmHg 75%
16:00 +9°C° 0 mm 3 mps 736 mmHg 78%
17:00 +8°C° 0 mm 3 mps 736 mmHg 79%
18:00 +7°C° 0 mm 3 mps 736 mmHg 80%
19:00 +5°C° 0 mm 3 mps 736 mmHg 81%
20:00 +6°C° 0 mm 2 mps 735 mmHg 79%
21:00 +5°C° 0 mm 2 mps 735 mmHg 78%
22:00 +5°C° 0 mm 2 mps 735 mmHg 76%
23:00 +5°C° 0 mm 2 mps 735 mmHg 74%

21 January, Thursday

Time Temperature Precipitation Wind Pressure Humidity
00:00 +5°C° 0 mm 2 mps 735 mmHg 73%
01:00 +5°C° 0 mm 2 mps 734 mmHg 71%
02:00 +5°C° 0 mm 2 mps 734 mmHg 70%
03:00 +5°C° 0 mm 2 mps 734 mmHg 70%
04:00 +6°C° 0 mm 1 mps 733 mmHg 70%
05:00 +7°C° 0 mm 1 mps 733 mmHg 70%
06:00 +7°C° 0 mm 1 mps 733 mmHg 70%
07:00 +7°C° 0 mm 1 mps 733 mmHg 70%
08:00 +8°C° 0 mm 1 mps 733 mmHg 68%
09:00 +9°C° 0 mm 1 mps 733 mmHg 67%
10:00 +10°C° 0 mm 1 mps 733 mmHg 66%
11:00 +10°C° 0 mm 2 mps 733 mmHg 64%
12:00 +12°C° 0 mm 2 mps 733 mmHg 61%
13:00 +13°C° 0 mm 2 mps 733 mmHg 59%
14:00 +12°C° 0 mm 2 mps 732 mmHg 63%
15:00 +12°C° 0 mm 1 mps 732 mmHg 67%
16:00 +11°C° 0 mm 1 mps 732 mmHg 71%
17:00 +10°C° 0 mm 1 mps 732 mmHg 71%
18:00 +9°C° 0 mm 2 mps 732 mmHg 71%
19:00 +8°C° 0 mm 2 mps 732 mmHg 71%
20:00 +8°C° 0 mm 2 mps 732 mmHg 72%
21:00 +8°C° 0 mm 2 mps 732 mmHg 72%
22:00 +8°C° 0 mm 2 mps 732 mmHg 73%
23:00 +8°C° 0 mm 2 mps 732 mmHg 74%

22 January, Friday

Time Temperature Precipitation Wind Pressure Humidity
00:00 +8°C° 0 mm 3 mps 731 mmHg 76%
01:00 +8°C° 0 mm 3 mps 731 mmHg 78%
02:00 +8°C° 0.1 mm 3 mps 731 mmHg 81%
03:00 +7°C° 0.1 mm 4 mps 730 mmHg 84%
04:00 +7°C° 0.1 mm 4 mps 730 mmHg 88%
05:00 +7°C° 0.1 mm 4 mps 730 mmHg 88%
06:00 +7°C° 0.1 mm 4 mps 730 mmHg 89%
07:00 +7°C° 0.1 mm 4 mps 729 mmHg 90%
08:00 +8°C° 0 mm 4 mps 729 mmHg 87%
09:00 +10°C° 0 mm 4 mps 729 mmHg 84%
10:00 +10°C° 0 mm 4 mps 729 mmHg 81%
11:00 +10°C° 0.1 mm 5 mps 729 mmHg 80%
12:00 +10°C° 0.1 mm 5 mps 729 mmHg 79%
13:00 +10°C° 0.1 mm 5 mps 728 mmHg 78%
14:00 +10°C° 0.4 mm 5 mps 728 mmHg 80%
15:00 +9°C° 0.4 mm 5 mps 727 mmHg 82%
16:00 +9°C° 0.4 mm 5 mps 727 mmHg 85%
17:00 +9°C° 0.1 mm 5 mps 727 mmHg 84%
18:00 +9°C° 0.1 mm 5 mps 727 mmHg 84%
19:00 +9°C° 0.1 mm 5 mps 726 mmHg 84%
20:00 +9°C° 0.1 mm 5 mps 726 mmHg 85%
21:00 +9°C° 0.1 mm 5 mps 726 mmHg 87%
22:00 +9°C° 0.1 mm 5 mps 726 mmHg 88%
23:00 +8°C° 0 mm 5 mps 726 mmHg 88%

23 January, Saturday

Time Temperature Precipitation Wind Pressure Humidity
00:00 +8°C° 0 mm 5 mps 725 mmHg 88%
01:00 +8°C° 0 mm 5 mps 725 mmHg 88%
02:00 +8°C° 0 mm 4 mps 725 mmHg 87%
03:00 +8°C° 0 mm 4 mps 725 mmHg 86%
04:00 +9°C° 0 mm 3 mps 724 mmHg 86%
05:00 +9°C° 0 mm 3 mps 724 mmHg 85%
06:00 +9°C° 0 mm 3 mps 724 mmHg 85%
07:00 +9°C° 0 mm 3 mps 724 mmHg 84%
08:00 +9°C° 0.3 mm 3 mps 724 mmHg 84%
09:00 +10°C° 0.3 mm 4 mps 724 mmHg 83%
10:00 +10°C° 0.3 mm 4 mps 725 mmHg 83%
11:00 +11°C° 0.1 mm 4 mps 725 mmHg 79%
12:00 +11°C° 0.1 mm 4 mps 725 mmHg 75%
13:00 +12°C° 0.1 mm 3 mps 725 mmHg 71%
14:00 +11°C° 0 mm 4 mps 725 mmHg 70%
15:00 +10°C° 0 mm 5 mps 725 mmHg 68%
16:00 +9°C° 0 mm 6 mps 725 mmHg 67%
17:00 +8°C° 0 mm 6 mps 725 mmHg 71%
18:00 +7°C° 0 mm 5 mps 725 mmHg 74%
19:00 +6°C° 0 mm 5 mps 726 mmHg 78%
20:00 +6°C° 0 mm 4 mps 726 mmHg 78%
21:00 +6°C° 0 mm 4 mps 727 mmHg 78%
22:00 +5°C° 0 mm 3 mps 727 mmHg 79%
23:00 +5°C° 0 mm 4 mps 727 mmHg 79%
Show more